Location: Peterborough
(44.3091°N, 78.3197°W)
Time: 01:53:25
(UTC-04:00)

SR - Pass Details

Date: 26 March 2023
Orbit: 581 x 867 km, 66.7° (Epoch: 02 June)

Event Time Altitude Azimuth Distance (km) Brightness Sun altitude
Rises 11:48:15 0° 328° (NNW) 2,814 ? 43.4°
Reaches altitude 10° 11:50:27 10° 330° (NNW) 1,922 ? 43.6°
Maximum altitude 11:54:45 81° 57° (ENE) 619 ? 44.0°
Drops below altitude 10° 11:59:16 10° 146° (SE) 2,012 ? 44.4°
Sets 12:01:37 0° 147° (SSE) 2,959 ? 44.6°
